{"data":{"norad_id":64177,"epoch":"2026-09-20T23:22:33.471264Z","epoch_age_seconds":99467,"freshness":"FRESH","line1":"1 64177U 25113H   26263.97399851  .00013781  00000+0  41802-3 0  9994","line2":"2 64177  53.1567 263.3773 0001894  72.6577 287.4633 15.34417756 74974","mean_motion":15.34417756,"eccentricity":0.0001894,"inclination_deg":53.1567,"raan_deg":263.3773,"arg_perigee_deg":72.6577,"mean_anomaly_deg":287.4633,"bstar":0.00041802,"rev_number":7497,"period_min":93.846672092343,"perigee_km":461.35482099602,"apogee_km":463.9461112882,"semimajor_km":6840.7874661421,"source":"CELESTRAK","updated_at":"2026-09-21T09:00:35.244083Z"}}